Tracking 22454 objects as of 5-Mar-2021
HD Live streaming from Space Station
objects crossing your sky now

DELTA 1 DEB

Track DELTA 1 DEB now!
10-day predictions


NORAD ID: 21515
Int'l Code: 1975-052GL
Perigee: 1,069.4 km
Apogee: 1,485.3 km
Inclination: 99.7 °
Period: 110.9 minutes
Semi major axis: 7648 km
RCS: 0.0773 m2 (small)
Launch date: June 12, 1975
Source: United States (US)
Launch site: AIR FORCE WESTERN TEST RANGE (AFWTR)

Note: This is SATELLITE DEBRIS
aabbcc
Your satellite tracking list
Your tracking list is empty




NASA's NSSDC Master Catalog

Two Line Element Set (TLE):
1 21515U 75052GL  21063.32037785 -.00000228  00000-0 -54430-3 0  9993
2 21515  99.7079 298.0908 0271944 293.5398 128.2318 12.97929655412129
Source of the keplerian elements: AFSPC